Date,TemperatureHighF,TemperatureAvgF,TemperatureLowF,DewpointHighF,DewpointAvgF,DewpointLowF,HumidityHigh,HumidityAvg,HumidityLow,PressureMaxIn,PressureMinIn,WindSpeedMaxMPH,WindSpeedAvgMPH,GustSpeedMaxMPH,PrecipitationSumIn
2013-1-1,48.0,45.0,42.0,46.4,41.2,36.7,94,87,75,29.90,29.49,13,7,28,0.27
2013-1-2,47.0,44.6,42.0,44.4,40.7,38.8,94,86,81,30.26,29.90,10,5,23,0.00
2013-1-3,52.0,49.7,46.0,49.1,47.5,44.4,95,92,88,30.57,30.25,9,5,24,0.01
2013-1-4,50.0,48.5,46.0,48.6,46.3,44.1,98,92,89,30.59,30.54,9,5,20,0.02
2013-1-5,48.0,46.5,46.0,45.9,44.2,43.5,94,92,89,30.57,30.49,7,2,14,0.00
2013-1-6,50.0,46.9,42.0,46.6,44.5,39.6,95,92,87,30.48,30.42,8,4,15,0.01
2013-1-7,46.0,44.4,42.0,44.6,42.8,40.3,95,94,90,30.43,30.29,6,3,16,0.00
2013-1-8,47.0,45.0,42.0,43.9,42.5,39.9,94,91,88,30.29,30.22,7,4,18,0.01
2013-1-9,46.0,43.5,39.0,45.0,41.8,36.7,96,93,89,30.22,30.04,6,3,16,0.11
2013-1-10,45.0,42.2,39.0,40.1,38.3,35.4,93,86,73,30.04,29.88,7,3,15,0.10
2013-1-11,39.0,32.4,27.0,36.9,28.7,24.4,93,86,74,30.10,29.92,8,1,18,0.00
2013-1-12,36.0,33.1,29.0,30.0,26.5,24.6,87,77,66,30.09,30.02,9,3,13,0.00
2013-1-13,33.0,28.3,25.0,26.2,23.7,21.4,92,83,69,30.12,30.05,7,3,18,0.00
2013-1-14,30.0,26.5,21.0,27.5,23.4,18.3,92,88,77,30.08,29.67,9,2,21,0.00
2013-1-15,29.0,27.3,25.0,27.0,24.3,18.5,100,89,74,29.84,29.62,10,5,23,0.01
2013-1-16,30.0,21.7,16.0,25.0,17.3,12.7,100,83,73,30.01,29.83,3,0,6,0.01
2013-1-17,24.0,21.1,15.0,21.6,18.6,11.7,92,90,85,30.13,30.01,4,0,8,0.00
2013-1-18,29.0,27.7,22.0,26.6,25.2,19.4,92,90,90,30.06,29.84,7,4,15,0.00
2013-1-19,29.0,28.1,23.0,26.4,25.1,16.9,90,88,77,29.84,29.51,9,6,20,0.00
2013-1-20,26.0,23.0,22.0,24.1,19.3,16.3,98,86,78,29.51,29.33,11,7,23,0.00
2013-1-21,31.0,27.7,26.0,29.5,25.7,23.5,100,92,90,29.59,29.36,6,4,16,0.00
2013-1-22,29.0,25.6,19.0,25.7,22.6,16.5,91,88,83,29.79,29.59,6,2,12,0.00
2013-1-23,27.0,22.6,17.0,23.0,19.4,14.7,92,87,83,29.89,29.79,6,2,12,0.00
2013-1-24,30.0,24.5,17.0,23.4,20.1,13.6,92,83,70,30.15,29.88,6,2,14,0.01
2013-1-25,29.0,20.6,11.0,24.4,16.7,7.9,93,85,78,30.16,29.83,9,2,21,0.00
2013-1-26,34.0,29.4,26.0,32.2,26.3,21.6,94,88,82,29.83,29.74,9,5,20,0.01
2013-1-27,42.0,38.0,34.0,40.5,35.5,31.8,94,91,83,29.77,29.41,15,7,33,0.35
2013-1-28,45.0,40.8,37.0,41.9,37.0,34.3,92,86,78,29.87,29.59,19,7,39,0.03
2013-1-29,55.0,49.9,45.0,51.1,47.4,43.0,95,91,86,29.70,29.59,19,11,42,0.15
2013-1-30,55.0,49.4,45.0,50.9,45.2,38.1,95,86,70,29.91,29.53,19,10,39,0.23
2013-1-31,50.0,45.7,43.0,43.7,39.8,37.6,90,80,72,29.97,29.74,16,10,36,0.03
2013-2-1,46.0,41.6,37.0,41.0,38.3,34.9,94,88,77,29.83,29.38,12,4,31,0.18
2013-2-2,42.0,39.9,37.0,38.8,34.7,31.1,93,82,69,30.06,29.43,14,7,30,0.09
2013-2-3,45.0,40.9,38.0,42.3,36.6,30.4,93,85,71,30.12,29.82,13,7,31,0.04
2013-2-4,49.0,46.1,44.0,44.4,40.3,35.4,93,80,63,29.84,29.72,16,9,44,0.04
2013-2-5,44.0,39.3,34.0,38.5,32.6,29.1,93,77,65,29.72,29.30,16,9,34,0.11
2013-2-6,42.0,36.5,33.0,35.6,32.8,30.2,93,86,70,29.78,29.25,11,5,21,0.13
2013-2-7,40.0,37.8,35.0,36.1,33.4,31.6,91,84,78,29.91,29.78,11,6,27,0.09
2013-2-8,39.0,34.2,29.0,33.1,29.6,24.4,96,83,64,30.10,29.87,7,2,15,0.09
2013-2-9,39.0,33.4,30.0,33.3,30.0,27.1,93,87,69,30.12,29.96,8,2,19,0.00
2013-2-10,35.0,32.4,30.0,31.3,27.2,23.0,93,81,67,29.96,29.56,12,6,25,0.03
2013-2-11,33.0,30.1,28.0,24.4,22.0,19.9,80,72,65,29.79,29.51,12,8,28,0.00
2013-2-12,33.0,29.7,26.0,27.7,22.9,20.7,85,76,65,30.14,29.79,8,3,21,0.00
2013-2-13,36.0,30.6,26.0,28.0,25.2,22.8,90,81,65,30.29,30.14,5,1,12,0.00
2013-2-14,35.0,31.3,29.0,33.4,26.2,21.0,94,82,69,30.22,29.84,11,6,25,0.06
2013-2-15,44.0,38.8,34.0,41.4,36.6,32.4,95,92,86,30.18,29.89,7,2,13,0.04
2013-2-16,45.0,41.1,37.0,42.4,38.4,35.2,95,90,80,30.27,30.17,2,0,6,0.03
2013-2-17,45.0,38.6,30.0,37.6,34.8,27.1,93,87,71,30.27,30.20,6,2,13,0.00
2013-2-18,45.0,34.8,28.0,35.8,31.0,25.7,94,86,62,30.21,30.14,5,0,9,0.01
2013-2-19,43.0,36.9,28.0,37.9,33.7,25.2,94,88,81,30.15,30.04,7,2,15,0.01
2013-2-20,37.0,32.8,29.0,31.3,25.5,22.3,92,75,63,30.33,30.15,9,6,19,0.00
2013-2-21,35.0,29.9,26.0,25.5,22.8,18.1,87,75,51,30.33,30.20,9,4,20,0.00
2013-2-22,34.0,28.9,25.0,24.4,21.8,16.7,87,75,62,30.21,30.08,11,6,22,0.00
2013-2-23,33.0,29.1,24.0,25.3,21.5,17.2,81,73,65,30.11,30.07,11,6,23,0.00
2013-2-24,34.0,32.2,30.0,31.1,28.9,24.8,92,87,77,30.15,30.07,9,6,21,0.03
2013-2-25,37.0,34.9,33.0,34.2,32.3,30.7,92,90,87,30.33,30.14,9,6,20,0.01
2013-2-26,40.0,36.8,35.0,35.8,34.0,32.7,92,89,84,30.53,30.32,6,4,14,0.00
2013-2-27,36.0,33.6,32.0,32.9,30.2,28.0,96,87,81,30.54,30.46,8,4,15,0.00
2013-2-28,38.0,34.2,32.0,32.0,30.5,29.3,92,86,77,30.46,30.35,5,3,11,0.00
2013-3-1,41.0,38.2,37.0,34.0,31.4,30.2,79,76,73,30.36,30.32,7,4,18,0.00
2013-3-2,41.0,37.3,36.0,31.8,30.5,29.1,80,76,69,30.35,30.26,5,2,11,0.00
2013-3-3,43.0,39.5,35.0,40.3,35.0,29.5,94,84,74,30.27,30.19,5,2,13,0.01
2013-3-4,50.0,39.4,31.0,36.9,32.1,27.5,92,76,57,30.20,29.86,9,4,20,0.00
2013-3-5,60.0,44.1,30.0,39.7,33.7,26.4,91,69,45,29.86,29.67,7,2,19,0.00
2013-3-6,60.0,48.1,36.0,45.0,38.6,31.6,88,71,49,29.67,29.55,4,1,9,0.00
2013-3-7,52.0,47.8,44.0,43.2,39.4,35.6,88,73,63,29.55,29.46,6,2,18,0.02
2013-3-8,56.0,49.2,45.0,48.9,44.9,41.0,92,85,76,29.49,29.46,8,3,16,0.04
2013-3-9,46.0,41.1,36.0,43.9,39.5,34.2,95,94,91,29.54,29.43,8,4,18,0.80
2013-3-10,36.0,32.5,31.0,34.3,28.8,22.3,94,86,70,29.75,29.54,10,6,18,0.08
2013-3-11,31.0,29.1,28.0,24.6,21.9,20.1,80,74,66,29.80,29.75,11,8,23,0.00
2013-3-12,33.0,28.6,24.0,21.4,18.0,14.2,78,65,47,29.78,29.72,13,8,23,0.00
2013-3-13,41.0,31.6,21.0,34.3,25.2,15.6,88,77,61,29.83,29.68,8,2,15,0.01
2013-3-14,37.0,32.1,24.0,30.2,25.4,19.8,92,77,60,29.99,29.80,9,3,19,0.04
2013-3-15,39.0,32.9,24.0,33.6,28.9,20.3,92,85,74,29.97,29.79,11,6,25,0.04
2013-3-16,45.0,41.3,37.0,35.2,31.7,25.3,85,69,51,29.80,29.52,13,8,28,0.04
2013-3-17,48.0,42.9,38.0,39.2,37.0,32.7,91,80,67,29.52,29.25,11,6,23,0.03
2013-3-18,47.0,41.5,37.0,39.9,37.2,34.2,92,85,69,29.34,29.23,9,4,20,0.07
2013-3-19,45.0,37.9,31.0,39.6,34.6,28.6,94,88,78,29.57,29.33,7,2,18,0.04
2013-3-20,38.0,34.8,33.0,33.8,29.4,26.1,92,80,73,29.98,29.56,9,5,17,0.00
2013-3-21,40.0,34.4,30.0,31.8,27.8,23.9,88,77,64,30.13,29.98,5,1,10,0.00
2013-3-22,41.0,33.4,27.0,30.2,26.6,23.7,90,77,63,30.12,29.94,14,9,33,0.01
2013-3-23,36.0,32.6,29.0,25.3,21.5,14.0,76,64,52,30.00,29.92,15,12,37,0.00
2013-3-24,37.0,31.0,26.0,15.3,10.7,5.5,57,43,29,30.01,29.94,14,11,34,0.00
2013-3-25,39.0,32.9,28.0,18.1,16.0,13.1,59,50,38,30.02,29.92,14,9,29,0.00
2013-3-26,41.0,33.5,27.0,19.0,17.4,15.6,65,52,36,29.98,29.89,12,7,25,0.00
2013-3-27,43.0,33.7,26.0,21.7,19.5,17.4,75,57,39,29.93,29.83,9,4,20,0.00
2013-3-28,40.0,32.3,26.0,25.2,22.1,18.1,79,66,52,29.86,29.81,8,4,17,0.00
2013-3-29,39.0,31.3,25.0,30.7,26.5,21.4,91,83,62,29.85,29.79,6,1,10,0.00
2013-3-30,42.0,32.5,26.0,30.6,27.2,23.0,93,81,63,29.92,29.78,8,2,16,0.01
2013-3-31,41.0,34.9,29.0,29.3,26.5,23.7,87,72,52,29.96,29.92,7,3,14,0.00
2013-4-1,45.0,36.3,28.0,27.9,24.9,19.4,92,66,38,29.95,29.84,9,5,18,0.00
2013-4-2,47.0,37.9,29.0,26.8,23.0,20.1,78,57,34,30.00,29.89,12,7,24,0.00
2013-4-3,45.0,37.6,30.0,27.1,23.8,21.9,73,58,42,30.06,29.95,11,6,28,0.00
2013-4-4,40.0,36.4,31.0,29.7,26.5,23.4,77,67,60,29.99,29.87,10,6,22,0.00
2013-4-5,47.0,39.3,35.0,32.4,28.9,26.6,77,66,48,30.02,29.85,11,7,24,0.00
2013-4-6,49.0,40.3,33.0,32.4,29.7,23.9,82,67,40,30.26,30.02,10,5,20,0.00
2013-4-7,50.0,37.6,27.0,38.3,28.3,23.5,95,72,46,30.27,29.98,5,1,11,0.00
2013-4-8,53.0,42.6,33.0,32.5,28.3,25.7,77,58,40,29.98,29.61,11,4,24,0.00
2013-4-9,51.0,44.1,38.0,42.4,37.0,27.0,88,77,51,29.61,29.47,6,2,14,0.02
2013-4-10,45.0,42.1,36.0,42.8,38.6,31.3,93,87,81,29.74,29.50,8,2,18,0.00
2013-4-11,47.0,42.8,38.0,45.5,40.9,35.1,96,93,89,29.67,29.40,13,5,28,0.17
2013-4-12,52.0,45.0,39.0,48.6,42.6,37.4,96,92,79,29.65,29.47,12,4,29,0.25
2013-4-13,58.0,48.2,41.0,48.9,43.2,39.2,95,84,55,30.04,29.65,12,5,23,0.06
2013-4-14,72.0,60.3,51.0,54.5,51.3,48.9,92,74,51,30.10,29.98,11,6,24,0.00
2013-4-15,64.0,56.1,47.0,51.6,48.1,42.1,90,75,60,30.13,29.98,8,2,20,0.04
2013-4-16,61.0,52.0,43.0,50.5,46.5,39.7,93,82,60,30.11,30.01,14,5,32,0.00
2013-4-17,67.0,57.7,47.0,54.5,49.6,44.4,94,76,52,30.14,29.83,11,4,26,0.00
2013-4-18,65.0,54.2,48.0,51.6,43.8,39.6,82,68,55,30.03,29.78,20,12,49,0.00
2013-4-19,51.0,46.8,41.0,44.4,40.9,36.5,85,80,73,30.46,30.03,10,6,22,0.00
2013-4-20,53.0,45.0,36.0,36.9,34.9,32.7,91,69,49,30.53,30.38,10,5,22,0.00
2013-4-21,57.0,45.0,35.0,40.8,35.2,31.3,91,70,51,30.38,30.05,6,2,14,0.00
2013-4-22,58.0,47.7,35.0,45.5,40.1,31.6,93,76,59,30.05,29.99,8,3,20,0.00
2013-4-23,59.0,51.9,48.0,50.4,46.6,41.0,94,83,67,30.24,29.98,9,5,25,0.02
2013-4-24,63.0,54.3,47.0,51.8,47.8,44.2,92,79,64,30.26,30.22,13,4,24,0.00
2013-4-25,70.0,58.2,50.0,55.8,50.5,46.0,91,77,54,30.26,30.00,7,2,19,0.00
2013-4-26,58.0,47.2,44.0,48.6,43.3,40.5,92,86,69,30.00,29.87,9,5,18,0.13
2013-4-27,52.0,46.3,40.0,41.5,37.9,34.3,90,73,55,30.03,29.87,10,6,20,0.13
2013-4-28,54.0,46.1,36.0,40.5,36.6,32.2,91,70,55,30.07,29.93,7,2,15,0.00
2013-4-29,54.0,48.1,44.0,44.2,38.8,34.9,92,71,51,30.13,29.87,12,6,23,0.07
2013-4-30,54.0,48.6,43.0,43.7,40.1,36.7,92,73,53,30.29,30.13,9,4,18,0.00
2013-5-1,64.0,51.2,38.0,44.2,39.1,33.8,86,65,43,30.30,30.14,8,4,17,0.00
2013-5-2,61.0,52.3,45.0,46.6,41.1,35.8,76,66,55,30.17,30.10,8,5,17,0.00
2013-5-3,67.0,54.0,44.0,49.8,44.1,38.1,84,70,51,30.13,30.04,7,2,14,0.00
2013-5-4,62.0,53.5,44.0,47.3,44.3,39.9,87,72,53,30.13,30.00,14,5,32,0.00
2013-5-5,67.0,56.0,47.0,51.4,46.1,41.9,92,71,51,30.21,30.13,7,3,14,0.00
2013-5-6,73.0,57.4,45.0,50.4,46.0,41.0,91,68,43,30.21,30.08,8,2,14,0.00
2013-5-7,77.0,62.0,50.0,57.7,51.5,45.7,90,71,40,30.08,29.91,9,3,22,0.01
2013-5-8,72.0,60.9,55.0,58.1,55.3,50.9,92,83,56,29.91,29.75,10,3,21,0.09
2013-5-9,59.0,55.4,51.0,51.6,46.3,39.9,92,73,51,29.92,29.82,10,5,21,0.02
2013-5-10,58.0,54.3,50.0,49.5,46.4,41.2,91,75,62,29.97,29.77,13,8,33,0.03
2013-5-11,56.0,51.7,49.0,48.2,46.3,41.0,91,82,59,29.97,29.80,13,6,31,0.21
2013-5-12,55.0,49.5,45.0,46.4,43.5,41.0,92,80,66,30.00,29.81,12,6,24,0.06
2013-5-13,56.0,51.1,47.0,50.7,46.5,42.4,94,85,65,29.95,29.78,14,7,29,0.13
2013-5-14,56.0,49.5,46.0,47.3,43.6,39.6,89,81,59,29.80,29.56,14,4,32,0.06
2013-5-15,60.0,53.1,48.0,48.6,45.3,39.7,90,76,57,29.61,29.41,13,6,26,0.02
2013-5-16,51.0,46.8,42.0,48.2,43.8,-18.2,93,89,76,29.61,29.48,9,3,20,0.45
2013-5-17,49.0,47.0,46.0,46.4,45.0,44.1,94,93,89,29.70,29.50,7,4,16,0.44
2013-5-18,55.0,49.7,46.0,47.7,45.4,42.4,93,85,73,29.84,29.70,8,3,16,0.01
2013-5-19,64.0,52.3,42.0,50.7,45.9,39.4,95,80,61,29.87,29.81,9,3,20,0.00
2013-5-20,53.0,51.0,49.0,51.4,49.1,46.0,95,93,83,29.82,29.74,5,1,11,0.83
2013-5-21,51.0,48.8,47.0,49.6,47.2,44.8,96,94,92,29.92,29.79,9,4,23,0.18
2013-5-22,50.0,46.9,46.0,44.8,42.1,39.6,92,83,78,29.96,29.92,10,8,24,0.00